Location: Walnut Point State Park
(39.6958°N, 88.0345°W)
Time: 05:39:08
(UTC-05:00)

Amateur Radio Satellites - All Passes

Search period start: 01 April 2015 05:09
Search period end: 02 April 2015 05:09
Location: Walnut Point State Park, 39.6958°N, 88.0345°W

Satellite Date Start Highest point End Downlink Frequencies (MHz)
Time Altitude Azimuth
MOZHAYETS 4 01 Apr 05:23:04 05:27:25 40° 262° (W) 05:31:49
M-CUBED/EXP-1 PRIME 01 Apr 05:26:05 05:30:09 72° 254° (WSW) 05:34:35 437.505
VERMONT LUNAR 01 Apr 05:30:49 05:34:10 79° 164° (SSE) 05:37:31 437.305
HORYU 2 01 Apr 05:33:32 05:37:06 23° 292° (WNW) 05:40:33 437.375
CUBESAT XI-V 01 Apr 05:41:59 05:45:44 25° 69° (ENE) 05:49:36 437.345
ISS 01 Apr 05:59:35 06:01:12 13° 230° (SW) 06:02:43 145.825
STRAND 1 01 Apr 06:02:43 06:06:47 25° 67° (ENE) 06:10:57 437.568
AO-7 01 Apr 06:29:40 06:37:07 38° 299° (WNW) 06:44:27 29.400- 29.500
JAS-2 01 Apr 06:31:35 06:38:07 30° 297° (WNW) 06:44:03 435.910
AUBIESAT-1 01 Apr 06:36:01 06:38:22 14° 267° (W) 06:40:36 437.475
PHONESAT 2.4 01 Apr 06:36:14 06:39:45 87° 179° (S) 06:43:18 2401.200-2431.200
PRISM 01 Apr 06:50:26 06:54:39 74° 258° (WSW) 06:58:53 437.425
GONETS M04 01 Apr 06:53:47 07:02:41 87° 266° (W) 07:11:33
CUTE-I 01 Apr 06:59:00 07:04:13 55° 100° (E) 07:09:25 437.470
RS-15 01 Apr 06:59:02 07:05:06 15° 260° (W) 07:10:10 29.354- 29.394
Cubesat XI-IV 01 Apr 07:00:06 07:05:20 57° 100° (E) 07:10:34 437.490
VERMONT LUNAR 01 Apr 07:08:33 07:11:54 76° 4° (N) 07:15:15 437.305
DANDE 01 Apr 07:12:37 07:16:22 27° 77° (ENE) 07:21:14 436.750
CUBESAT XI-V 01 Apr 07:18:49 07:23:04 32° 264° (W) 07:27:17 437.345
STRAND 1 01 Apr 07:40:59 07:45:48 39° 262° (W) 07:50:36 437.568
CUSAT 1 01 Apr 07:46:31 07:51:10 81° 79° (E) 07:57:27 437.405
PHONESAT 2.4 01 Apr 08:14:38 08:18:10 81° 5° (N) 08:21:43 2401.200-2431.200
CUTE-I 01 Apr 08:40:11 08:43:55 19° 296° (WNW) 08:47:29 437.470
Cubesat XI-IV 01 Apr 08:41:22 08:45:03 19° 296° (WNW) 08:48:32 437.490
BRITE-PL 01 Apr 08:44:17 08:48:08 33° 97° (E) 08:52:13 437.365/2234.400
VERMONT LUNAR 01 Apr 08:46:17 08:49:32 50° 200° (SSW) 08:52:48 437.305
DOVE 4 01 Apr 08:49:50 08:52:42 17° 92° (E) 08:55:49 437.250
GONETS M04 01 Apr 08:53:13 08:58:25 16° 281° (W) 09:03:03
HO-68 01 Apr 08:53:49 09:00:07 33° 95° (E) 09:06:31 435.675
DANDE 01 Apr 08:55:40 08:59:37 29° 263° (W) 09:04:32 436.750
BEESAT 2 01 Apr 09:04:22 09:07:37 23° 113° (ESE) 09:10:59 435.950
CANX-2 01 Apr 09:13:54 09:17:59 41° 98° (E) 09:22:05 2200.000
GOMX 1 01 Apr 09:14:54 09:19:06 47° 99° (E) 09:23:33 467.674
CUTE 1.7 + AOD 2 01 Apr 09:27:15 09:31:29 53° 99° (E) 09:35:43 437.475
CUSAT 1 01 Apr 09:32:23 09:33:59 11° 267° (W) 09:35:15 437.405
ANTELSAT 01 Apr 09:34:28 09:36:55 15° 66° (ENE) 09:39:33 437.575/2403.000
CUBEBUG 2 01 Apr 09:34:58 09:37:25 15° 90° (E) 09:40:07 437.445
BEESAT 3 01 Apr 09:36:44 09:40:47 65° 120° (ESE) 09:44:53 437.485
AAUSAT CUBESAT 2 01 Apr 09:39:46 09:43:48 42° 98° (E) 09:47:50 437.432
CINEMA 3 01 Apr 09:42:42 09:46:46 33° 97° (E) 09:51:01 145.822/145.860
NANOSAT C BR1 01 Apr 09:49:13 09:50:06 11° 64° (ENE) 09:51:13 145.865
SEEDS 01 Apr 09:51:44 09:56:04 86° 105° (ESE) 10:00:20 437.485
PHONESAT 2.4 01 Apr 09:53:03 09:56:25 42° 203° (SSW) 09:59:47 2401.200-2431.200
POLYITAN 1 01 Apr 09:55:19 09:57:12 13° 66° (ENE) 09:59:17 437.675
UKube-1 01 Apr 10:02:33 10:04:02 12° 89° (E) 10:05:47 .
COMPASS 1 01 Apr 10:09:23 10:13:39 73° 284° (WNW) 10:17:52 437.405
DX 1 01 Apr 10:15:48 10:18:46 18° 93° (E) 10:21:51 434.975-435.025
BRITE-PL 01 Apr 10:23:23 10:26:34 20° 291° (WNW) 10:29:45 437.365/2234.400
VERMONT LUNAR 01 Apr 10:25:22 10:26:46 12° 214° (SW) 10:28:06 437.305
DOVE 4 01 Apr 10:26:31 10:30:40 42° 287° (WNW) 10:35:01 437.250
UNISAT 6 01 Apr 10:28:22 10:32:34 59° 74° (ENE) 10:36:51 437.425
DUCHIFAT 1 01 Apr 10:28:38 10:32:14 29° 71° (ENE) 10:35:54 145.980
Oscar 11 01 Apr 10:28:38 10:33:01 72° 101° (ESE) 10:37:22 145.826/435.025
QB50P1 01 Apr 10:28:38 10:32:16 30° 71° (ENE) 10:35:59 145.935-145.965
AIST 2 01 Apr 10:33:46 10:38:01 76° 120° (ESE) 10:42:19 435.215
DELFI C3 01 Apr 10:34:55 10:39:01 66° 101° (E) 10:43:04 145.870
TIGRISAT 01 Apr 10:37:03 10:41:17 73° 76° (ENE) 10:45:37 435.000
HO-68 01 Apr 10:41:12 10:48:02 47° 293° (WNW) 10:54:47 435.675
BEESAT 2 01 Apr 10:41:54 10:45:38 31° 309° (NW) 10:49:23 435.950
QB50P2 01 Apr 10:44:12 10:48:13 45° 73° (ENE) 10:52:17 145.880/145.840
FUNcube-1 01 Apr 10:45:27 10:49:48 56° 100° (E) 10:54:15 145.935
CANX-2 01 Apr 10:50:45 10:53:38 17° 293° (WNW) 10:56:23 2200.000
GOMX 1 01 Apr 10:54:20 10:57:00 16° 292° (WNW) 10:59:33 467.674
BUGSAT 1 01 Apr 10:54:22 10:58:15 40° 73° (ENE) 11:02:08 437.445
UWE-3 01 Apr 10:58:09 11:02:38 82° 282° (WNW) 11:07:12 435.000/436.395/437.385
ZACube-1 01 Apr 10:59:32 11:03:59 83° 102° (ESE) 11:08:31 437.345
CUBEBUG 1 01 Apr 11:01:10 11:01:53 10° 88° (E) 11:02:52 437.445
CUTE 1.7 + AOD 2 01 Apr 11:04:45 11:07:01 14° 294° (WNW) 11:09:05 437.475
VELOX 1 01 Apr 11:08:03 11:11:54 30° 96° (E) 11:15:47 145.980
ANTELSAT 01 Apr 11:09:16 11:13:22 46° 261° (W) 11:17:34 437.575/2403.000
CUBEBUG 2 01 Apr 11:10:06 11:14:26 50° 286° (WNW) 11:18:53 437.445
POPSAT HIP 1 01 Apr 11:12:01 11:16:14 86° 257° (WSW) 11:20:28 437.405
AISAT 01 Apr 11:14:00 11:18:04 36° 97° (E) 11:22:08 437.250
AAUSAT CUBESAT 2 01 Apr 11:16:27 11:19:08 16° 293° (WNW) 11:21:39 437.432
BEESAT 3 01 Apr 11:16:54 11:19:19 15° 318° (NW) 11:21:36 437.485
CINEMA 3 01 Apr 11:20:18 11:23:51 23° 291° (WNW) 11:27:25 145.822/145.860
NANOSAT C BR1 01 Apr 11:21:17 11:25:28 67° 259° (W) 11:29:40 145.865
HUMSAT D 01 Apr 11:24:57 11:29:14 80° 102° (ESE) 11:33:33 437.325/437.525
POLYITAN 1 01 Apr 11:28:37 11:32:44 53° 260° (W) 11:36:52 437.675
50 SAT 01 Apr 11:34:00 11:38:02 65° 101° (E) 11:42:04 437.505
UKube-1 01 Apr 11:36:23 11:40:38 57° 287° (WNW) 11:44:52 .
YUBILEINY 01 Apr 11:49:17 11:52:04 12° 77° (ENE) 11:55:36 435.215
DX 1 01 Apr 11:51:11 11:55:11 37° 289° (WNW) 11:59:09 434.975-435.025
ESTCUBE 1 01 Apr 11:54:17 11:58:41 50° 99° (E) 12:03:03 437.505/2401.250
DUCHIFAT 1 01 Apr 12:04:48 12:08:07 22° 266° (W) 12:11:21 145.980
QB50P1 01 Apr 12:04:55 12:08:13 21° 266° (W) 12:11:25 145.935-145.965
Oscar 11 01 Apr 12:07:31 12:08:40 11° 296° (WNW) 12:09:36 145.826/435.025
UNISAT 6 01 Apr 12:08:34 12:09:53 11° 272° (W) 12:10:56 437.425
TISAT 1 01 Apr 12:09:57 12:11:53 13° 90° (E) 12:14:02 437.305
DELFI C3 01 Apr 12:12:52 12:13:41 10° 295° (WNW) 12:14:17 145.870
AIST 2 01 Apr 12:14:50 12:17:11 14° 319° (NW) 12:19:25 435.215
QB50P2 01 Apr 12:22:06 12:24:26 14° 269° (W) 12:26:35 145.880/145.840
FUNcube-1 01 Apr 12:23:23 12:25:45 14° 294° (WNW) 12:27:57 145.935
SPROUT 01 Apr 12:31:01 12:34:43 29° 96° (E) 12:38:29 437.525
BUGSAT 1 01 Apr 12:31:28 12:33:58 15° 268° (W) 12:36:18 437.445
CUBEBUG 1 01 Apr 12:34:29 12:38:46 63° 285° (WNW) 12:43:01 437.445
Oscar 19 01 Apr 12:41:55 12:46:12 28° 68° (ENE) 12:50:35 437.125/150
VELOX 1 01 Apr 12:44:48 12:48:22 24° 292° (WNW) 12:51:50 145.980
AISAT 01 Apr 12:51:11 12:54:29 20° 292° (WNW) 12:57:38 437.250
50 SAT 01 Apr 13:11:48 13:12:28 10° 295° (WNW) 13:12:54 437.505
Gurwin Techsat 1B 01 Apr 13:24:33 13:28:12 20° 65° (ENE) 13:32:01 435.225
O/OREOS (USA 219) 01 Apr 13:29:01 13:33:33 64° 66° (ENE) 13:38:01 437.305
ESTCUBE 1 01 Apr 13:32:26 13:35:11 16° 294° (WNW) 13:37:46 437.505/2401.250
YUBILEINY 01 Apr 13:38:47 13:47:32 73° 94° (E) 13:56:21 435.215
ITUPSAT 1 01 Apr 13:40:49 13:44:25 21° 93° (E) 13:48:07 437.325
TISAT 1 01 Apr 13:43:58 13:48:01 48° 287° (WNW) 13:52:03 437.305
AO-7 01 Apr 13:47:42 13:51:08 14° 48° (NE) 13:55:01 29.400- 29.500
ITAMSAT 1 01 Apr 13:54:06 13:59:00 44° 71° (ENE) 14:03:58 435.822/435.867
PCSat 01 Apr 14:07:14 14:12:34 63° 115° (ESE) 14:17:58 145.827
SPROUT 01 Apr 14:07:16 14:10:43 23° 291° (WNW) 14:14:04 437.525
Oscar 19 01 Apr 14:20:53 14:25:29 33° 264° (W) 14:30:04 437.125/150
SWISSCUBE 01 Apr 14:26:17 14:31:05 72° 102° (ESE) 14:35:51 437.505
BEESAT 01 Apr 14:28:38 14:33:26 70° 101° (ESE) 14:38:11 436.000
AIST 1 01 Apr 14:39:12 14:43:04 32° 76° (ENE) 14:46:56
HORYU 2 01 Apr 14:54:21 14:58:07 28° 69° (ENE) 15:01:58 437.375
JAS-2 01 Apr 14:57:09 15:02:39 25° 61° (ENE) 15:08:43 435.910
Gurwin Techsat 1B 01 Apr 15:02:37 15:07:49 53° 260° (W) 15:13:02 435.225
O/OREOS (USA 219) 01 Apr 15:11:01 15:12:28 11° 261° (W) 15:13:38 437.305
ITUPSAT 1 01 Apr 15:18:02 15:22:29 38° 289° (WNW) 15:26:51 437.325
KKS-1 01 Apr 15:19:02 15:23:16 43° 99° (E) 15:27:32 437.445
AO-7 01 Apr 15:34:22 15:42:29 62° 67° (ENE) 15:50:38 29.400- 29.500
ITAMSAT 1 01 Apr 15:34:44 15:38:45 22° 267° (W) 15:42:38 435.822/435.867
YUBILEINY 01 Apr 15:38:25 15:45:22 24° 296° (WNW) 15:52:00 435.215
STARS 01 Apr 15:42:53 15:47:10 50° 99° (E) 15:51:28 437.465
PCSat 01 Apr 15:52:26 15:56:31 21° 314° (NW) 16:00:29 145.827
SWISSCUBE 01 Apr 16:06:13 16:08:25 13° 297° (WNW) 16:10:23 437.505
BEESAT 01 Apr 16:08:27 16:10:46 13° 297° (WNW) 16:12:50 436.000
AIST 1 01 Apr 16:17:28 16:20:31 19° 272° (W) 16:23:25
HORYU 2 01 Apr 16:31:03 16:34:46 25° 265° (W) 16:38:25 437.375
SRMSAT 01 Apr 16:37:29 16:38:09 10° 182° (S) 16:38:47 437.500
JAS-2 01 Apr 16:40:03 16:47:01 69° 260° (W) 16:54:42 435.910
CUTE-I 01 Apr 16:44:42 16:46:00 11° 60° (ENE) 16:47:37 437.470
Cubesat XI-IV 01 Apr 16:45:39 16:47:14 12° 60° (ENE) 16:49:08 437.490
KKS-1 01 Apr 16:56:37 16:59:37 18° 294° (WNW) 17:02:31 437.445
RS-15 01 Apr 16:58:07 17:04:27 19° 102° (ESE) 17:11:34 29.354- 29.394
M-CUBED/EXP-1 PRIME 01 Apr 17:11:20 17:12:32 11° 91° (E) 17:14:03 437.505
MOZHAYETS 4 01 Apr 17:18:48 17:23:20 49° 99° (E) 17:27:50
STARS 01 Apr 17:20:39 17:23:17 15° 294° (WNW) 17:25:45 437.465
BEESAT 2 01 Apr 17:24:52 17:27:10 15° 42° (NE) 17:29:36 435.950
AO-7 01 Apr 17:28:51 17:35:50 28° 266° (W) 17:42:35 29.400- 29.500
SO-50 01 Apr 17:53:10 17:57:30 43° 116° (ESE) 18:02:01 436.795
BEESAT 3 01 Apr 17:56:47 18:00:28 31° 50° (NE) 18:04:08 437.485
GONETS M04 01 Apr 18:00:05 18:05:59 22° 82° (E) 18:12:18
AUBIESAT-1 01 Apr 18:15:43 18:20:23 48° 103° (ESE) 18:24:53 437.475
CUTE-I 01 Apr 18:20:00 18:25:21 83° 77° (ENE) 18:30:45 437.470
Cubesat XI-IV 01 Apr 18:21:15 18:26:38 86° 78° (ENE) 18:32:03 437.490
JAS-2 01 Apr 18:32:10 18:33:49 10° 281° (W) 18:34:47 435.910
PRISM 01 Apr 18:35:10 18:37:42 16° 92° (E) 18:40:23 437.425
M-CUBED/EXP-1 PRIME 01 Apr 18:43:11 18:48:04 78° 289° (WNW) 18:52:44 437.505
AIST 2 01 Apr 18:56:34 19:00:34 38° 52° (NE) 19:04:30 435.215
MOZHAYETS 4 01 Apr 18:57:12 19:00:12 17° 294° (WNW) 19:03:02
BEESAT 2 01 Apr 19:01:41 19:05:48 64° 241° (WSW) 19:09:49 435.950
RS-15 01 Apr 19:04:29 19:15:23 85° 120° (ESE) 19:26:30 29.354- 29.394
CUBESAT XI-V 01 Apr 19:15:51 19:20:28 66° 101° (E) 19:25:02 437.345
HO-68 01 Apr 19:22:35 19:27:54 24° 60° (ENE) 19:33:28 435.675
SO-50 01 Apr 19:34:24 19:38:15 24° 315° (NW) 19:42:10 436.795
BEESAT 3 01 Apr 19:35:05 19:38:24 23° 247° (WSW) 19:41:35 437.485
AUBIESAT-1 01 Apr 19:51:19 19:54:50 20° 299° (WNW) 19:58:10 437.475
STRAND 1 01 Apr 19:51:55 19:57:03 76° 102° (ESE) 20:02:08 437.568
GONETS M04 01 Apr 19:53:18 20:02:00 75° 280° (W) 20:10:47
BRITE-PL 01 Apr 19:54:43 19:58:54 36° 72° (ENE) 20:02:53 437.365/2234.400
DOVE 4 01 Apr 19:56:00 19:58:23 15° 67° (ENE) 20:00:54 437.250
CUTE-I 01 Apr 20:04:26 20:06:13 11° 273° (W) 20:07:38 437.470
Cubesat XI-IV 01 Apr 20:06:07 20:07:33 11° 273° (W) 20:08:35 437.490
CANX-2 01 Apr 20:06:27 20:10:01 27° 70° (ENE) 20:13:39 2200.000
PRISM 01 Apr 20:09:30 20:13:24 38° 288° (WNW) 20:17:14 437.425
CUTE 1.7 + AOD 2 01 Apr 20:19:32 20:23:21 34° 72° (ENE) 20:27:14 437.475
M-CUBED/EXP-1 PRIME 01 Apr 20:21:26 20:22:10 10° 304° (NW) 20:22:38 437.505
GOMX 1 01 Apr 20:22:45 20:26:57 45° 74° (ENE) 20:31:01 467.674
DANDE 01 Apr 20:27:31 20:29:48 21° 96° (E) 20:31:57 436.750
AAUSAT CUBESAT 2 01 Apr 20:30:17 20:33:45 26° 70° (ENE) 20:37:19 437.432
CUBEBUG 2 01 Apr 20:34:53 20:35:37 11° 64° (ENE) 20:36:36 437.445
AIST 2 01 Apr 20:35:48 20:38:56 20° 248° (WSW) 20:41:54 435.215
SEEDS 01 Apr 20:42:58 20:47:03 53° 75° (ENE) 20:51:13 437.485
CINEMA 3 01 Apr 20:44:36 20:48:02 26° 70° (ENE) 20:51:31 145.822/145.860
CUBESAT XI-V 01 Apr 20:55:18 20:57:25 13° 296° (WNW) 20:59:18 437.345
CUSAT 1 01 Apr 20:57:40 21:00:21 62° 280° (W) 21:02:56 437.405
UKube-1 01 Apr 20:58:23 20:58:54 10° 63° (ENE) 20:59:41 .
COMPASS 1 01 Apr 20:59:41 21:03:50 68° 76° (ENE) 21:08:02 437.405
ISS 01 Apr 21:00:31 21:03:20 27° 135° (SE) 21:06:11 145.825
HO-68 01 Apr 21:07:58 21:15:06 68° 257° (WSW) 21:22:16 435.675
DX 1 01 Apr 21:11:26 21:13:58 16° 66° (ENE) 21:16:40 434.975-435.025
RS-15 01 Apr 21:19:47 21:29:19 32° 326° (NNW) 21:38:54 29.354- 29.394
DELFI C3 01 Apr 21:21:58 21:25:40 35° 72° (ENE) 21:29:27 145.870
Oscar 11 01 Apr 21:22:32 21:26:41 49° 74° (ENE) 21:30:54 145.826/435.025
DOVE 4 01 Apr 21:31:49 21:35:55 43° 262° (W) 21:39:54 437.250
STRAND 1 01 Apr 21:33:09 21:35:41 13° 298° (WNW) 21:37:58 437.568
BRITE-PL 01 Apr 21:34:13 21:37:34 19° 267° (W) 21:40:39 437.365/2234.400
FUNcube-1 01 Apr 21:40:53 21:44:41 38° 72° (ENE) 21:48:35 145.935
CANX-2 01 Apr 21:42:27 21:45:56 24° 266° (W) 21:49:23 2200.000
UWE-3 01 Apr 21:54:45 21:58:52 72° 76° (ENE) 22:03:02 435.000/436.395/437.385
ZACube-1 01 Apr 21:54:58 21:59:01 57° 75° (ENE) 22:03:07 437.345
GONETS M04 01 Apr 21:56:10 22:00:47 14° 303° (WNW) 22:04:49
CUTE 1.7 + AOD 2 01 Apr 21:56:19 21:59:25 19° 268° (W) 22:02:24 437.475
GOMX 1 01 Apr 22:02:58 22:05:24 14° 269° (W) 22:07:34 467.674
VELOX 1 01 Apr 22:05:16 22:08:52 25° 69° (ENE) 22:12:34 145.980
AAUSAT CUBESAT 2 01 Apr 22:05:56 22:09:22 24° 266° (W) 22:12:46 437.432
CUBEBUG 2 01 Apr 22:07:44 22:11:50 64° 259° (W) 22:16:00 437.445
AISAT 01 Apr 22:11:21 22:15:12 30° 70° (ENE) 22:19:06 437.250
HUMSAT D 01 Apr 22:16:10 22:20:06 48° 74° (ENE) 22:24:06 437.325/437.525
50 SAT 01 Apr 22:19:29 22:22:58 33° 72° (ENE) 22:26:33 437.505
SEEDS 01 Apr 22:21:27 22:23:17 12° 271° (W) 22:24:53 437.485
CINEMA 3 01 Apr 22:21:51 22:25:15 23° 266° (W) 22:28:34 145.822/145.860
UNISAT 6 01 Apr 22:22:27 22:24:51 14° 90° (E) 22:27:30 437.425
UKube-1 01 Apr 22:30:11 22:34:31 75° 258° (WSW) 22:38:52 .
TIGRISAT 01 Apr 22:30:27 22:33:24 17° 91° (E) 22:36:32 435.000
ISS 01 Apr 22:36:42 22:39:42 32° 331° (NNW) 22:42:40 145.825
DX 1 01 Apr 22:45:41 22:49:53 47° 261° (W) 22:54:06 434.975-435.025
ESTCUBE 1 01 Apr 22:53:06 22:57:22 42° 72° (ENE) 23:01:42 437.505/2401.250
PCSat 01 Apr 22:56:03 23:01:12 42° 55° (NE) 23:06:21 145.827
DELFI C3 01 Apr 22:58:16 23:01:01 17° 269° (W) 23:03:38 145.870
POPSAT HIP 1 01 Apr 22:59:19 23:01:55 16° 92° (E) 23:04:41 437.405
Oscar 11 01 Apr 23:00:55 23:03:14 14° 270° (W) 23:05:21 145.826/435.025
ANTELSAT 01 Apr 23:01:44 23:06:02 38° 97° (E) 23:10:26 437.575/2403.000
NANOSAT C BR1 01 Apr 23:07:54 23:11:00 20° 93° (E) 23:14:14 145.865
POLYITAN 1 01 Apr 23:15:20 23:18:51 25° 95° (E) 23:22:26 437.675
FUNcube-1 01 Apr 23:18:36 23:21:16 16° 269° (W) 23:23:47 145.935
SPROUT 01 Apr 23:25:01 23:28:11 21° 69° (ENE) 23:31:28 437.525
CUBEBUG 1 01 Apr 23:29:31 23:33:56 85° 257° (WSW) 23:38:21 437.445
ZACube-1 01 Apr 23:34:50 23:35:52 11° 272° (W) 23:36:39 437.345
RS-15 01 Apr 23:39:34 23:46:42 18° 0° (N) 23:54:02 29.354- 29.394
VELOX 1 01 Apr 23:41:30 23:45:23 28° 264° (W) 23:49:11 145.980
AISAT 01 Apr 23:48:13 23:51:50 23° 266° (W) 23:55:21 437.250
DUCHIFAT 1 01 Apr 23:49:19 23:53:30 61° 101° (E) 23:57:41 145.980
QB50P1 01 Apr 23:49:44 23:53:56 63° 101° (E) 23:58:08 145.935-145.965
YUBILEINY 01 Apr 23:50:31 23:58:17 34° 70° (ENE) 00:06:08 435.215
HUMSAT D 01 Apr 23:54:22 23:56:15 12° 271° (W) 23:57:55 437.325/437.525
50 SAT 01 Apr 23:55:25 23:58:02 17° 268° (W) 00:00:31 437.505
UNISAT 6 01 Apr 23:57:29 00:02:01 54° 286° (WNW) 00:06:35 437.425
QB50P2 02 Apr 00:05:56 00:10:11 82° 284° (WNW) 00:14:26 145.880/145.840
TIGRISAT 02 Apr 00:06:00 00:10:24 45° 287° (WNW) 00:14:51 435.000
BUGSAT 1 02 Apr 00:12:33 00:16:36 82° 101° (E) 00:20:39 437.445
ISS 02 Apr 00:15:37 00:16:53 12° 350° (N) 00:18:06 145.825
ESTCUBE 1 02 Apr 00:31:23 00:34:30 17° 268° (W) 00:37:28 437.505/2401.250
POPSAT HIP 1 02 Apr 00:34:03 00:38:02 39° 288° (WNW) 00:41:59 437.405
TISAT 1 02 Apr 00:35:05 00:39:17 73° 258° (WSW) 00:43:30 437.305
ANTELSAT 02 Apr 00:39:05 00:42:38 22° 292° (WNW) 00:46:06 437.575/2403.000
PCSat 02 Apr 00:39:56 00:44:25 26° 251° (WSW) 00:48:46 145.827
NANOSAT C BR1 02 Apr 00:43:11 00:46:57 31° 289° (WNW) 00:50:41 145.865
ITUPSAT 1 02 Apr 00:47:02 00:50:48 24° 67° (ENE) 00:54:41 437.325
POLYITAN 1 02 Apr 00:51:10 00:54:44 26° 290° (WNW) 00:58:14 437.675
SPROUT 02 Apr 01:00:15 01:04:08 32° 264° (W) 01:07:58 437.525
DUCHIFAT 1 02 Apr 01:27:15 01:28:54 12° 295° (WNW) 01:30:19 145.980
QB50P1 02 Apr 01:27:51 01:29:22 11° 295° (WNW) 01:30:39 145.935-145.965
SWISSCUBE 02 Apr 01:31:55 01:36:42 75° 75° (ENE) 01:41:32 437.505
BEESAT 02 Apr 01:34:12 01:38:57 72° 76° (ENE) 01:43:47 436.000
YUBILEINY 02 Apr 01:47:01 01:55:28 51° 270° (W) 02:03:44 435.215
ISS 02 Apr 01:53:08 01:54:23 12° 10° (N) 01:55:41 145.825
RS-15 02 Apr 01:54:23 02:04:09 32° 34° (NE) 02:14:30 29.354- 29.394
ITAMSAT 1 02 Apr 02:08:57 02:12:04 16° 90° (E) 02:15:23 435.822/435.867
KKS-1 02 Apr 02:16:34 02:20:35 35° 71° (ENE) 02:24:39 437.445
ITUPSAT 1 02 Apr 02:24:06 02:28:32 36° 263° (W) 02:32:58 437.325
SO-50 02 Apr 02:25:18 02:29:49 34° 50° (NE) 02:34:19 436.795
Oscar 19 02 Apr 02:32:28 02:37:41 89° 285° (WNW) 02:42:53 437.125/150
STARS 02 Apr 02:39:09 02:43:13 39° 72° (ENE) 02:47:19 437.465
VERMONT LUNAR 02 Apr 03:06:02 03:08:14 17° 149° (SSE) 03:10:29 437.305
AIST 1 02 Apr 03:08:26 03:11:40 21° 89° (E) 03:15:01
SWISSCUBE 02 Apr 03:13:53 03:15:13 11° 272° (W) 03:16:13 437.505
BEESAT 02 Apr 03:15:53 03:17:26 11° 272° (W) 03:18:40 436.000
Gurwin Techsat 1B 02 Apr 03:19:29 03:24:47 66° 101° (E) 03:30:04 435.225
ISS 02 Apr 03:28:35 03:31:34 33° 30° (NNE) 03:34:32 145.825
AO-7 02 Apr 03:38:19 03:43:46 20° 90° (E) 03:49:37 29.400- 29.500
O/OREOS (USA 219) 02 Apr 03:40:05 03:44:41 90° 112° (ESE) 03:49:18 437.305
ITAMSAT 1 02 Apr 03:46:56 03:52:01 57° 287° (WNW) 03:57:03 435.822/435.867
JAS-2 02 Apr 03:52:21 03:57:49 22° 87° (E) 04:03:13 435.910
KKS-1 02 Apr 03:54:03 03:57:22 20° 267° (W) 04:00:34 437.445
M-CUBED/EXP-1 PRIME 02 Apr 03:58:56 04:00:46 13° 57° (ENE) 04:02:51 437.505
SO-50 02 Apr 04:05:58 04:10:19 31° 246° (WSW) 04:14:33 436.795
RS-15 02 Apr 04:06:39 04:18:15 88° 237° (WSW) 04:30:21 29.354- 29.394
Oscar 19 02 Apr 04:14:40 04:16:21 11° 299° (WNW) 04:17:46 437.125/150
STARS 02 Apr 04:16:54 04:19:54 17° 268° (W) 04:22:45 437.465
PHONESAT 2.4 02 Apr 04:19:31 04:22:26 25° 152° (SSE) 04:25:23 2401.200-2431.200
MOZHAYETS 4 02 Apr 04:19:54 04:24:15 42° 72° (ENE) 04:28:39
HORYU 2 02 Apr 04:22:11 04:26:41 65° 101° (E) 04:31:09 437.375
VERMONT LUNAR 02 Apr 04:42:14 04:45:33 64° 163° (SSE) 04:48:52 437.305
AIST 1 02 Apr 04:45:15 04:49:11 30° 285° (WNW) 04:53:04
Gurwin Techsat 1B 02 Apr 05:00:59 05:04:17 16° 297° (WNW) 05:07:22 435.225
